Flag for United Kingdom Weather past 2 weeks in Nottingham, England, United Kingdom

Now
54 °F

Scattered showers. Scattered clouds.


Feels Like: 48 °F
Forecast: 45 / 55 °F
Wind: 20 mph from West

Location: East Midlands

Current Time: May 28, 2015 at 12:28:11 PM

Latest Report: May 28, 2015 at 11:50 AM


Visibility: N/A

Pressure: 29.92 "Hg

Humidity: 58%

Dew point: 39 °F

Location of NottinghamLocation

Historic Weather in Nottingham — Graph

°F

Nottingham temperature yesterday

Maximum temperature yesterday: 63 °F (at 1:20 PM)
Minimum temperature yesterday: 39 °F (at 3:50 AM)
Average temperature yesterday: 53 °F

Past Weeks' High & Low Weather Summary

 TemperatureHumidityPressure
High68 °F (May 22, 2:50 PM)100% (May 14, 1:20 AM)30.33 "Hg (May 14, 1:20 AM)
Low39 °F (May 27, 3:50 AM)42% (May 13, 3:20 PM)29.47 "Hg (May 19, 2:20 AM)
Average52 °F73%30.07 "Hg
* Reported May 13 11:20 AM — May 28 11:20 AM, Nottingham, Weather by CustomWeather, © 2015

Note: Actual official high and low records may vary slightly from our data, if they occured in-between our weather recording intervals... More about our weather records

Advertising

Nottingham weather history for previous 24 hours

 ConditionsComfort  
Time TempWeatherWind HumidityBarometerVisibility
11:20 AM
Thu, May 28
57 °FScattered clouds.17 mph55%29.92 "HgN/A
10:50 AM55 °FScattered clouds.18 mph55%29.92 "HgN/A
10:20 AM54 °FScattered clouds.17 mph58%29.92 "HgN/A
9:50 AM54 °FScattered clouds.16 mph63%29.92 "HgN/A
8:50 AM50 °FScattered clouds.16 mph71%29.92 "HgN/A
7:20 AM48 °FScattered clouds.17 mph87%29.89 "HgN/A
6:50 AM48 °FScattered clouds.18 mph87%29.89 "HgN/A
6:20 AM48 °FPassing clouds.10 mph87%29.89 "HgN/A
5:50 AM46 °FScattered clouds.14 mph87%29.89 "HgN/A
5:20 AM48 °FSprinkles. Passing clouds.14 mph87%29.89 "HgN/A
4:20 AM48 °FPassing clouds.12 mph94%29.86 "HgN/A
3:50 AM50 °FPassing clouds.13 mph94%29.86 "HgN/A
3:20 AM50 °FPassing clouds.14 mph94%29.86 "HgN/A
2:50 AM50 °FPassing clouds.13 mph94%29.86 "HgN/A
2:20 AM50 °FPassing clouds.14 mph94%29.86 "HgN/A
1:50 AM50 °FPassing clouds.16 mph94%29.89 "HgN/A
1:20 AM50 °FPassing clouds.15 mph94%29.89 "HgN/A
12:50 AM50 °FPassing clouds.16 mph94%29.89 "Hg5 mi
12:20 AM52 °FPassing clouds.18 mph82%29.89 "HgN/A
11:50 PM
Wed, May 27
52 °FPassing clouds.16 mph77%29.89 "HgN/A
11:20 PM52 °FPassing clouds.15 mph77%29.92 "HgN/A
10:50 PM52 °FPassing clouds.18 mph77%29.92 "HgN/A
10:20 PM54 °FPassing clouds.17 mph72%29.92 "HgN/A
9:50 PM54 °FPartly sunny.20 mph72%29.92 "HgN/A
9:20 PM55 °FPartly sunny.22 mph63%29.92 "HgN/A
8:50 PM55 °FPartly sunny.21 mph59%29.95 "HgN/A
8:20 PM55 °FScattered clouds.20 mph55%29.95 "HgN/A
7:50 PM55 °FPartly sunny.13 mph67%29.95 "HgN/A
7:20 PM57 °FScattered clouds.18 mph59%29.98 "HgN/A
6:50 PM59 °FSprinkles. Scattered clouds.17 mph55%29.98 "HgN/A
6:20 PM61 °FScattered clouds.23 mph52%29.98 "HgN/A
5:50 PM61 °FBroken clouds.17 mph59%30.01 "HgN/A
5:20 PM61 °FSprinkles. Broken clouds.17 mph59%30.01 "HgN/A
4:50 PM61 °FScattered clouds.15 mph59%30.04 "HgN/A
4:20 PM61 °FPassing clouds.17 mph55%30.07 "HgN/A
3:50 PM63 °FPassing clouds.17 mph52%30.07 "HgN/A
3:20 PM63 °FPassing clouds.14 mph52%30.09 "HgN/A
2:50 PM61 °FPassing clouds.13 mph55%30.09 "HgN/A
2:20 PM63 °FPassing clouds.15 mph49%30.12 "HgN/A
1:50 PM61 °FPassing clouds.14 mph52%30.12 "HgN/A
1:20 PM63 °FPassing clouds.14 mph49%30.15 "HgN/A
12:50 PM61 °FPassing clouds.14 mph52%30.18 "HgN/A
12:20 PM59 °FScattered clouds.10 mph55%30.18 "HgN/A
Weather by CustomWeather, © 2015

See weather overviewHow to use our weather pages